This is the latest recevied weather packets stored in our database for station/object WO5CID. If no packets are shown the sender has not sent any weather packets the latest 10 day(s).
| Time | Temp. | Humidity | Pressure | Rain* | Wind** | Luminosity | Snow |
|---|---|---|---|---|---|---|---|
| 1777765178 | 21.67° C | 85% | 1010.8 hPa | 0 mm | - | 20 W/m² | - |
| 1777764867 | 21.67° C | 84% | 1010.8 hPa | 0 mm | - | 26 W/m² | - |
| 1777764565 | 21.67° C | 85% | 1010.9 hPa | 0 mm | - | 26 W/m² | - |
| 1777764261 | 21.67° C | 85% | 1010.8 hPa | 0 mm | - | 23 W/m² | - |
| 1777763958 | 21.67° C | 85% | 1010.6 hPa | 0 mm | - | 34 W/m² | - |
| 1777763656 | 22.22° C | 86% | 1010.5 hPa | 0 mm | - | 36 W/m² | - |
| 1777763353 | 22.22° C | 88% | 1010.1 hPa | 0 mm | - | 22 W/m² | - |
| 1777763051 | 22.22° C | 87% | 1010 hPa | 0 mm | - | 31 W/m² | - |
| 1777762749 | 22.22° C | 87% | 1010.1 hPa | 0 mm | - | 47 W/m² | - |
| 1777762445 | 22.22° C | 88% | 1009.8 hPa | 0 mm | - | 56 W/m² | - |
| 1777762142 | 22.22° C | 88% | 1009.7 hPa | 0 mm | - | 60 W/m² | - |
| 1777761837 | 22.22° C | 89% | 1009.6 hPa | 0 mm | - | 47 W/m² | - |
| 1777761535 | 22.22° C | 88% | 1009.6 hPa | 0 mm | - | 39 W/m² | - |
| 1777761232 | 22.22° C | 88% | 1009.5 hPa | 0 mm | - | 47 W/m² | - |
| 1777760930 | 22.22° C | 87% | 1009.5 hPa | 0 mm | - | 45 W/m² | - |
| 1777760622 | 22.78° C | 87% | 1009.4 hPa | 0 mm | - | 53 W/m² | - |
| 1777760317 | 22.78° C | 88% | 1009.3 hPa | 0 mm | - | 64 W/m² | - |
| 1777760008 | 22.22° C | 87% | 1009.5 hPa | 0 mm | - | 88 W/m² | - |
| 1777759706 | 22.78° C | 87% | 1009.2 hPa | 0 mm | - | 134 W/m² | - |
| 1777759401 | 22.78° C | 87% | 1009.1 hPa | 0 mm | - | 136 W/m² | - |
| 1777759097 | 22.22° C | 89% | 1009.1 hPa | 0 mm | - | 130 W/m² | - |
| 1777758795 | 22.22° C | 88% | 1009.1 hPa | 0 mm | - | 106 W/m² | - |
| 1777758492 | 22.22° C | 89% | 1009.1 hPa | 0 mm | - | 42 W/m² | - |
| 1777758183 | 22.78° C | 89% | 1008.8 hPa | 0 mm | - | 27 W/m² | - |
| 1777757880 | 22.78° C | 87% | 1008.9 hPa | 0 mm | - | 20 W/m² | - |
* Rain latest hour (hover to see other rain measurements)
** Current wind speed in m/s (hover to see current wind gust speed)